Total_Precipitation_Accumulation
3.54 2.47 1.00 0.73 0.74 0.49 0.55 0.44 0.65 0.56 0.55 0.64 0.95 0.67 0.24 0.16 0.20 0.18 0.07 0.06 0.23 0.51 1.01 1.24 0.89 0.81 0.91 0.85 0.88 0.71 0.61 0.72 0.95 1.11 0.99 0.98 1.26 1.71 1.88 1.42 1.18 1.10 0.92 0.81
2.64 1.35 0.41 0.67 0.92 0.49 0.43 0.40 0.76 0.87 0.71 0.75 0.65 0.86 0.43 0.18 0.16 0.15 0.17 0.13 0.22 0.47 0.89 1.29 1.70 0.90 0.88 1.50 1.77 1.37 1.11 1.01 0.94 1.07 1.00 0.90 1.00 1.20 1.63 1.89 1.49 1.43 1.34 1.13
1.55 0.74 0.58 0.81 1.40 0.68 0.36 0.19 0.45 1.27 0.95 0.66 0.52 0.60 0.70 0.27 0.15 0.14 0.18 0.23 0.35 0.56 0.60 1.05 1.84 1.39 1.25 1.72 1.87 1.62 1.51 1.54 1.46 1.48 1.88 1.58 1.60 1.47 1.70 2.10 1.90 1.77 1.52 1.43
1.89 0.66 0.56 0.88 1.57 0.88 0.65 0.15 0.48 0.87 0.86 0.71 0.40 0.60 0.44 0.32 0.22 0.16 0.25 0.28 0.31 0.43 0.38 0.60 0.95 1.32 1.45 1.02 1.03 1.53 2.55 2.98 2.12 1.91 2.77 3.41 3.11 2.94 2.71 2.93 2.66 2.08 1.81 1.70
1.69 0.91 0.76 0.94 0.95 0.75 0.67 0.33 0.80 0.94 0.75 0.79 0.42 0.78 0.23 0.27 0.24 0.29 0.28 0.17 0.16 0.17 0.34 0.35 0.56 0.83 0.79 0.73 0.77 0.94 1.48 2.35 2.43 2.47 2.68 3.17 3.04 2.43 2.15 2.20 2.76 2.79 2.49 2.03
0.92 0.93 0.93 0.78 0.52 0.27 0.24 0.29 0.76 1.25 1.07 1.13 0.31 0.38 0.23 0.23 0.20 0.40 0.32 0.15 0.27 0.23 0.16 0.32 0.31 0.46 0.55 0.66 0.78 0.69 1.00 1.46 2.17 2.43 2.42 2.63 2.87 3.14 2.69 2.19 2.38 2.23 1.84 1.80
1.50 1.24 0.90 0.77 0.36 0.24 0.29 0.74 1.61 1.72 1.56 0.79 0.23 0.16 0.15 0.11 0.10 0.26 0.38 0.25 0.36 0.49 0.30 0.37 0.59 0.56 0.66 0.78 0.60 0.61 0.89 1.03 1.49 1.68 2.07 2.18 1.76 2.01 2.11 1.96 1.92 2.02 1.94 1.72
1.60 2.00 1.15 0.63 0.28 0.34 0.35 0.69 1.41 1.50 0.59 0.50 0.20 0.26 0.19 0.21 0.19 0.19 0.35 0.47 0.72 0.98 0.55 0.51 0.81 1.02 1.05 0.88 0.85 0.56 0.82 0.90 0.88 0.88 0.93 1.31 1.54 1.90 1.85 1.67 1.57 1.52 1.42 1.55
0.68 1.18 0.58 0.28 0.08 0.16 0.34 0.54 0.47 0.82 0.32 0.49 0.38 0.31 0.39 0.41 0.39 0.28 0.38 0.71 0.96 1.05 0.91 0.79 0.86 1.20 1.12 0.89 0.99 0.92 0.86 0.95 0.75 0.75 0.45 0.40 0.48 0.62 0.80 0.87 0.85 0.98 1.24 1.19
0.17 0.62 0.30 0.16 0.13 0.07 0.08 0.15 0.45 0.76 0.92 0.60 0.31 0.28 0.69 0.68 0.62 0.63 0.67 0.88 1.00 0.91 1.11 0.97 0.90 0.91 0.85 0.72 0.87 0.93 0.77 0.55 0.49 0.57 0.49 0.16 0.18 0.24 0.30 0.26 0.21 0.23 0.41 0.55
0.01 0.21 0.30 0.23 0.26 0.10 0.04 0.15 0.25 0.50 0.69 1.06 0.40 0.25 0.40 0.51 0.55 0.71 0.59 0.76 0.80 0.88 0.84 0.75 0.67 0.58 0.53 0.40 0.58 0.80 0.67 0.52 0.43 0.45 0.51 0.23 0.17 0.18 0.17 0.16 0.07 0.05 0.07 0.08
0.00 0.06 0.12 0.14 0.03 0.01 0.02 0.01 0.08 0.61 0.47 0.61 0.52 0.26 0.05 0.17 0.41 0.35 0.41 0.45 0.43 0.50 0.56 0.51 0.47 0.31 0.27 0.44 0.67 1.17 1.03 0.68 0.42 0.42 0.42 0.34 0.15 0.14 0.15 0.14 0.09 0.07 0.07 0.05
0.00 0.05 0.16 0.20 0.16 0.06 0.06 0.02 0.11 0.27 0.59 0.41 0.52 0.12 0.01 0.13 0.25 0.16 0.26 0.39 0.22 0.13 0.22 0.25 0.32 0.38 0.18 0.46 0.77 1.19 1.12 0.73 0.46 0.49 0.40 0.38 0.22 0.13 0.14 0.14 0.08 0.07 0.06 0.06
0.01 0.03 0.06 0.13 0.11 0.20 0.18 0.03 0.10 0.44 0.63 0.15 0.09 0.01 0.00 0.09 0.10 0.10 0.29 0.45 0.16 0.14 0.22 0.25 0.16 0.15 0.27 0.77 0.92 0.86 1.08 0.90 0.65 0.49 0.42 0.36 0.30 0.17 0.11 0.10 0.07 0.06 0.05 0.05
0.04 0.05 0.02 0.02 0.06 0.22 0.20 0.08 0.07 0.32 0.17 0.26 0.07 0.01 0.01 0.03 0.17 0.31 0.65 0.61 0.16 0.16 0.15 0.14 0.13 0.21 0.28 0.98 0.81 0.76 0.84 1.08 0.88 0.62 0.57 0.40 0.20 0.15 0.10 0.07 0.07 0.06 0.05 0.04
0.05 0.09 0.06 0.06 0.05 0.10 0.16 0.04 0.06 0.06 0.02 0.02 0.01 0.00 0.01 0.03 0.31 0.23 0.66 0.71 0.28 0.19 0.12 0.09 0.14 0.20 0.28 0.61 0.72 0.51 0.65 0.97 0.91 0.62 0.57 0.40 0.14 0.08 0.09 0.09 0.09 0.09 0.09 0.10
0.06 0.08 0.15 0.07 0.04 0.11 0.13 0.04 0.02 0.01 0.00 0.01 0.01 0.01 0.02 0.12 0.53 0.31 0.48 0.41 0.22 0.23 0.12 0.09 0.16 0.42 0.23 0.39 0.66 0.90 1.06 0.82 0.70 0.66 0.61 0.45 0.20 0.13 0.12 0.14 0.16 0.14 0.12 0.15
0.02 0.06 0.19 0.09 0.09 0.24 0.13 0.02 0.00 0.00 0.00 0.00 0.01 0.01 0.04 0.23 0.83 0.33 0.27 0.55 0.31 0.16 0.11 0.36 0.49 0.43 0.27 0.54 1.08 0.92 1.08 0.60 0.50 0.54 0.74 0.74 0.58 0.43 0.40 0.41 0.40 0.32 0.30 0.29
0.01 0.06 0.18 0.16 0.17 0.09 0.01 0.00 0.00 0.00 0.00 0.00 0.03 0.01 0.02 0.07 0.21 0.26 0.14 0.63 0.47 0.29 0.40 0.38 0.42 0.49 0.42 0.50 0.67 0.58 0.70 0.73 0.78 0.99 1.00 0.92 0.71 0.64 0.88 1.01 0.86 0.75 0.73 0.68
0.02 0.03 0.16 0.10 0.09 0.01 0.01 0.00 0.00 0.02 0.01 0.00 0.04 0.03 0.01 0.02 0.04 0.10 0.33 0.39 0.31 0.40 0.39 0.48 0.61 0.64 0.54 0.49 0.56 0.91 1.30 1.08 1.03 0.98 1.07 0.95 0.79 0.64 0.75 0.70 0.76 0.71 0.63 0.68
0.07 0.10 0.15 0.14 0.15 0.00 0.00 0.00 0.00 0.00 0.01 0.00 0.02 0.05 0.01 0.01 0.00 0.04 0.27 0.31 0.22 0.29 0.38 0.38 0.41 0.54 0.55 0.61 0.99 1.28 1.33 1.20 1.11 1.05 0.85 0.68 0.55 0.71 0.67 0.69 0.53 0.61 0.53 0.41
0.02 0.04 0.06 0.07 0.10 0.01 0.00 0.00 0.00 0.00 0.00 0.00 0.00 0.04 0.04 0.00 0.00 0.01 0.12 0.26 0.20 0.23 0.28 0.16 0.33 0.79 0.93 0.75 0.81 0.75 0.73 0.62 0.37 0.43 0.36 0.37 0.26 0.32 0.42 0.27 0.25 0.23 0.19 0.13
0.00 0.00 0.00 0.00 0.00 0.00 0.00 0.00 0.00 0.00 0.00 0.00 0.01 0.01 0.01 0.02 0.05 0.05 0.05 0.04 0.03 0.09 0.21 0.09 0.11 0.15 0.19 0.19 0.14 0.14 0.14 0.12 0.05 0.02 0.00 0.00 0.00 0.00 0.01 0.00 0.00 0.00 0.00 0.00
0.00 0.00 0.00 0.00 0.00 0.00 0.00 0.00 0.00 0.00 0.00 0.00 0.02 0.02 0.00 0.00 0.00 0.00 0.01 0.01 0.01 0.04 0.06 0.05 0.06 0.05 0.05 0.04 0.04 0.02 0.01 0.01 0.01 0.00 0.00 0.00 0.00 0.00 0.00 0.00 0.00 0.00 0.00 0.01
0.01 0.00 0.00 0.00 0.00 0.00 0.00 0.00 0.00 0.00 0.00 0.00 0.00 0.00 0.00 0.00 0.00 0.00 0.00 0.00 0.01 0.02 0.04 0.08 0.11 0.11 0.06 0.02 0.02 0.02 0.01 0.02 0.03 0.02 0.02 0.01 0.01 0.01 0.01 0.01 0.02 0.01 0.01 0.03
0.00 0.00 0.00 0.00 0.00 0.00 0.00 0.00 0.00 0.00 0.00 0.00 0.00 0.00 0.00 0.00 0.00 0.00 0.00 0.00 0.00 0.00 0.00 0.02 0.06 0.13 0.19 0.20 0.17 0.12 0.08 0.07 0.05 0.05 0.03 0.04 0.02 0.02 0.03 0.04 0.04 0.07 0.05 0.06